Météo par heure à Rawson

Ce jour, 1 Octobre, Jeudi

Heure Température Précipitation Vent Pression Humidité
00:00 +7°C° 0 mm 10 m/s 752 mmHg 48%
01:00 +6°C° 0 mm 10 m/s 753 mmHg 60%
02:00 +4°C° 0 mm 8 m/s 754 mmHg 71%
03:00 +4°C° 0 mm 7 m/s 754 mmHg 64%
04:00 +3°C° 0 mm 7 m/s 755 mmHg 57%
05:00 +3°C° 0 mm 6 m/s 755 mmHg 50%
06:00 +3°C° 0 mm 7 m/s 756 mmHg 45%
07:00 +3°C° 0 mm 9 m/s 757 mmHg 39%
08:00 +3°C° 0 mm 10 m/s 758 mmHg 34%
09:00 +5°C° 0 mm 10 m/s 758 mmHg 33%
10:00 +6°C° 0 mm 9 m/s 759 mmHg 32%
11:00 +7°C° 0 mm 9 m/s 759 mmHg 31%
12:00 +7°C° 0 mm 9 m/s 760 mmHg 28%
13:00 +7°C° 0 mm 10 m/s 760 mmHg 25%
14:00 +7°C° 0 mm 10 m/s 760 mmHg 22%
15:00 +7°C° 0 mm 10 m/s 761 mmHg 24%
16:00 +6°C° 0 mm 10 m/s 761 mmHg 26%
17:00 +6°C° 0 mm 9 m/s 762 mmHg 27%
18:00 +5°C° 0 mm 9 m/s 762 mmHg 30%
19:00 +4°C° 0 mm 8 m/s 763 mmHg 33%
20:00 +4°C° 0 mm 8 m/s 764 mmHg 35%
21:00 +3°C° 0 mm 7 m/s 765 mmHg 38%
22:00 +3°C° 0 mm 7 m/s 765 mmHg 40%
23:00 +2°C° 0 mm 6 m/s 766 mmHg 42%

Demain, 2 Octobre, Vendredi

Heure Température Précipitation Vent Pression Humidité
00:00 +2°C° 0.1 mm 7 m/s 767 mmHg 49%
01:00 +2°C° 0.1 mm 7 m/s 767 mmHg 57%
02:00 +2°C° 0.1 mm 7 m/s 768 mmHg 64%
03:00 0°C° 0.1 mm 7 m/s 768 mmHg 63%
04:00 0°C° 0.1 mm 7 m/s 769 mmHg 63%
05:00 0°C° 0.1 mm 7 m/s 770 mmHg 63%
06:00 +2°C° 0.1 mm 7 m/s 771 mmHg 58%
07:00 +2°C° 0.1 mm 7 m/s 772 mmHg 54%
08:00 +3°C° 0.1 mm 7 m/s 773 mmHg 50%
09:00 +3°C° 0.1 mm 7 m/s 773 mmHg 46%
10:00 +4°C° 0.1 mm 7 m/s 774 mmHg 43%
11:00 +5°C° 0.1 mm 7 m/s 774 mmHg 40%
12:00 +5°C° 0 mm 7 m/s 774 mmHg 40%
13:00 +5°C° 0 mm 6 m/s 774 mmHg 40%
14:00 +5°C° 0 mm 6 m/s 774 mmHg 40%
15:00 +5°C° 0 mm 6 m/s 774 mmHg 42%
16:00 +6°C° 0 mm 5 m/s 775 mmHg 44%
17:00 +5°C° 0 mm 5 m/s 775 mmHg 46%
18:00 +5°C° 0 mm 4 m/s 775 mmHg 48%
19:00 +4°C° 0 mm 3 m/s 776 mmHg 51%
20:00 +5°C° 0 mm 2 m/s 776 mmHg 53%
21:00 +4°C° 0 mm 2 m/s 776 mmHg 54%
22:00 +5°C° 0 mm 1 m/s 776 mmHg 56%
23:00 +5°C° 0 mm 1 m/s 776 mmHg 57%

Après-demain, 3 Octobre, Samedi

Heure Température Précipitation Vent Pression Humidité
00:00 +3°C° 0 mm 2 m/s 776 mmHg 58%
01:00 +2°C° 0 mm 3 m/s 776 mmHg 60%
02:00 +1°C° 0 mm 4 m/s 776 mmHg 61%
03:00 +1°C° 0 mm 4 m/s 776 mmHg 62%
04:00 0°C° 0 mm 4 m/s 776 mmHg 63%
05:00 0°C° 0 mm 4 m/s 775 mmHg 65%
06:00 +1°C° 0 mm 5 m/s 775 mmHg 58%
07:00 +3°C° 0 mm 5 m/s 775 mmHg 51%
08:00 +5°C° 0 mm 5 m/s 775 mmHg 44%
09:00 +5°C° 0 mm 6 m/s 774 mmHg 37%
10:00 +8°C° 0 mm 6 m/s 774 mmHg 30%
11:00 +9°C° 0 mm 7 m/s 774 mmHg 23%
12:00 +10°C° 0 mm 6 m/s 773 mmHg 22%
13:00 +11°C° 0 mm 6 m/s 772 mmHg 21%
14:00 +13°C° 0 mm 6 m/s 771 mmHg 20%
15:00 +12°C° 0 mm 7 m/s 771 mmHg 24%
16:00 +12°C° 0 mm 8 m/s 770 mmHg 27%
17:00 +12°C° 0 mm 9 m/s 769 mmHg 31%
18:00 +9°C° 0 mm 10 m/s 769 mmHg 35%
19:00 +8°C° 0 mm 10 m/s 769 mmHg 39%
20:00 +7°C° 0 mm 10 m/s 769 mmHg 43%
21:00 +6°C° 0 mm 10 m/s 769 mmHg 48%
22:00 +6°C° 0 mm 10 m/s 769 mmHg 52%
23:00 +6°C° 0 mm 11 m/s 768 mmHg 57%

4 Octobre, Dimanche

Heure Température Précipitation Vent Pression Humidité
00:00 +6°C° 0 mm 10 m/s 768 mmHg 55%
01:00 +6°C° 0 mm 9 m/s 768 mmHg 54%
02:00 +6°C° 0 mm 9 m/s 767 mmHg 52%
03:00 +6°C° 0 mm 8 m/s 767 mmHg 53%
04:00 +6°C° 0 mm 8 m/s 767 mmHg 54%
05:00 +6°C° 0 mm 8 m/s 767 mmHg 55%
06:00 +7°C° 0 mm 8 m/s 767 mmHg 51%
07:00 +9°C° 0 mm 8 m/s 766 mmHg 47%
08:00 +10°C° 0 mm 9 m/s 766 mmHg 43%
09:00 +11°C° 0 mm 9 m/s 766 mmHg 41%
10:00 +12°C° 0 mm 9 m/s 765 mmHg 39%
11:00 +13°C° 0 mm 9 m/s 765 mmHg 36%
12:00 +14°C° 0 mm 10 m/s 764 mmHg 36%
13:00 +14°C° 0 mm 10 m/s 763 mmHg 36%
14:00 +16°C° 0 mm 10 m/s 763 mmHg 36%
15:00 +16°C° 0 mm 11 m/s 762 mmHg 37%
16:00 +14°C° 0 mm 11 m/s 762 mmHg 37%
17:00 +14°C° 0 mm 12 m/s 761 mmHg 38%
18:00 +13°C° 0 mm 12 m/s 761 mmHg 41%
19:00 +12°C° 0 mm 12 m/s 761 mmHg 45%
20:00 +10°C° 0 mm 12 m/s 761 mmHg 48%
21:00 +9°C° 0 mm 12 m/s 761 mmHg 52%
22:00 +9°C° 0 mm 12 m/s 761 mmHg 56%
23:00 +8°C° 0 mm 12 m/s 760 mmHg 59%

5 Octobre, Lundi

Heure Température Précipitation Vent Pression Humidité
00:00 +8°C° 0 mm 11 m/s 760 mmHg 60%
01:00 +7°C° 0 mm 10 m/s 760 mmHg 60%
02:00 +7°C° 0 mm 9 m/s 760 mmHg 61%
03:00 +7°C° 0 mm 8 m/s 759 mmHg 58%
04:00 +8°C° 0 mm 7 m/s 759 mmHg 55%
05:00 +8°C° 0 mm 5 m/s 759 mmHg 52%
06:00 +9°C° 0 mm 5 m/s 759 mmHg 45%
07:00 +10°C° 0 mm 5 m/s 759 mmHg 39%
08:00 +13°C° 0 mm 4 m/s 758 mmHg 33%
09:00 +14°C° 0 mm 5 m/s 758 mmHg 29%
10:00 +16°C° 0 mm 5 m/s 757 mmHg 24%
11:00 +19°C° 0 mm 5 m/s 757 mmHg 20%
12:00 +20°C° 0 mm 5 m/s 756 mmHg 19%
13:00 +21°C° 0 mm 6 m/s 756 mmHg 17%
14:00 +22°C° 0 mm 6 m/s 755 mmHg 16%
15:00 +22°C° 0 mm 7 m/s 754 mmHg 18%
16:00 +21°C° 0 mm 8 m/s 753 mmHg 21%
17:00 +21°C° 0 mm 9 m/s 753 mmHg 23%
18:00 +20°C° 0 mm 8 m/s 752 mmHg 26%
19:00 +17°C° 0 mm 8 m/s 752 mmHg 30%
20:00 +16°C° 0 mm 7 m/s 752 mmHg 33%
21:00 +16°C° 0 mm 7 m/s 752 mmHg 30%
22:00 +16°C° 0 mm 6 m/s 752 mmHg 27%
23:00 +16°C° 0 mm 6 m/s 751 mmHg 24%

6 Octobre, Mardi

Heure Température Précipitation Vent Pression Humidité
00:00 +15°C° 0 mm 6 m/s 752 mmHg 25%
01:00 +15°C° 0 mm 6 m/s 752 mmHg 25%
02:00 +14°C° 0 mm 6 m/s 752 mmHg 25%
03:00 +13°C° 0 mm 5 m/s 752 mmHg 29%
04:00 +12°C° 0 mm 5 m/s 752 mmHg 32%
05:00 +10°C° 0 mm 5 m/s 753 mmHg 35%
06:00 +13°C° 0 mm 5 m/s 753 mmHg 34%
07:00 +14°C° 0 mm 4 m/s 754 mmHg 33%
08:00 +15°C° 0 mm 4 m/s 754 mmHg 31%
09:00 +17°C° 0 mm 4 m/s 754 mmHg 31%
10:00 +17°C° 0 mm 3 m/s 754 mmHg 30%
11:00 +18°C° 0 mm 3 m/s 755 mmHg 29%
12:00 +18°C° 0 mm 3 m/s 754 mmHg 30%
13:00 +18°C° 0 mm 4 m/s 754 mmHg 31%
14:00 +16°C° 0 mm 5 m/s 754 mmHg 32%
15:00 +16°C° 0 mm 5 m/s 754 mmHg 35%
16:00 +15°C° 0 mm 5 m/s 754 mmHg 37%
17:00 +14°C° 0 mm 5 m/s 754 mmHg 39%
18:00 +13°C° 0.3 mm 6 m/s 755 mmHg 48%
19:00 +11°C° 0.3 mm 6 m/s 756 mmHg 58%
20:00 +10°C° 0.3 mm 7 m/s 756 mmHg 67%
21:00 +10°C° 0.1 mm 6 m/s 757 mmHg 67%
22:00 +10°C° 0.1 mm 4 m/s 757 mmHg 66%
23:00 +10°C° 0.1 mm 2 m/s 758 mmHg 66%
Voir plus

We Need Your Consent

Meteoprog and our Service Providers may store and access personal data such as cookies, device identifiers or other similar technologies on your device and process such data to personalise content and ads, as well as provide social media features and to analyse the traffic.

  • Store and/or access information on your device

    Cookies, device identifiers or other information can be stored or accessed on your device for the purposes indicated above.

  • Personalised ads and content, ad and content measurement, audience insights, and products development

    Ads and content can be personalised based on a profile. More data can be added to better personalise ads and content. Ad and content performance can be measured. Insights about the audience who saw the ads and content can be derived. Such data can be used to develop or improve user’s experience, systems and software.

By clicking ‘I Agree’ you will allow the use of indicated cookies, device identifiers, web beacons or other similar technologies. Your settings can be changed in the browser on your device.

For certain purposes, legitimate interests may be relied on, rather than consent. You can read more about this in our Privacy and Cookie Policy.